Location: B�di�
(14.6834°N, 3.1047°W)
Time: 21:29:05
(UTC+00:00)

Cosmos 44 Rocket - Pass Details

Date: 24 January 2020
Orbit: 660 x 730 km, 65.1° (Epoch: 20 February)

Event Time Altitude Azimuth Distance (km) Brightness Sun altitude
Rises 18:42:33 0° 211° (SSW) 3,078 7.5 -8.9°
Reaches altitude 10° 18:44:57 10° 215° (SW) 2,149 6.7 -9.5°
Maximum altitude 18:49:45 56° 293° (WNW) 813 4.0 -10.6°
Drops below altitude 10° 18:54:26 10° 12° (NNE) 2,107 5.5 -11.7°
Sets 18:56:47 0° 16° (NNE) 3,011 6.3 -12.2°
Enters shadow 18:56:55 -1° 17° (NNE) 3,069 6.3 -12.3°
